Time,TemperatureF,DewpointF,PressureIn,WindDirection,WindDirectionDegrees,WindSpeedMPH,WindSpeedGustMPH,Humidity,HourlyPrecipIn,Conditions,Clouds,dailyrainin,SoftwareType,DateUTC
2013-05-23 00:01:00,64.4,54.4,29.26,ENE,68,0.0,0.0,70,0.00,,---,0.00,VWS V14.01,2013-05-23 05:01:00,
2013-05-23 00:06:00,64.4,54.4,29.26,ENE,68,0.0,0.0,70,0.00,,---,0.00,VWS V14.01,2013-05-23 05:06:00,
2013-05-23 00:11:00,64.4,54.4,29.26,ENE,68,0.0,0.0,70,0.00,,---,0.00,VWS V14.01,2013-05-23 05:11:00,
2013-05-23 00:16:00,64.4,54.4,29.26,ENE,68,0.0,0.0,70,0.00,,---,0.00,VWS V14.01,2013-05-23 05:16:00,
2013-05-23 00:21:00,64.4,54.4,29.29,ENE,68,0.0,0.0,70,0.00,,---,0.00,VWS V14.01,2013-05-23 05:21:00,
2013-05-23 00:26:00,64.4,54.4,29.29,ENE,68,0.0,0.0,70,0.00,,---,0.00,VWS V14.01,2013-05-23 05:26:00,
2013-05-23 00:31:00,64.4,54.8,29.29,ENE,68,0.0,0.0,71,0.00,,---,0.00,VWS V14.01,2013-05-23 05:31:00,
2013-05-23 00:36:00,64.4,54.8,29.26,ENE,68,0.0,0.0,71,0.00,,---,0.00,VWS V14.01,2013-05-23 05:36:00,
2013-05-23 00:41:00,64.2,55.0,29.26,ENE,68,0.0,0.0,72,0.00,,---,0.00,VWS V14.01,2013-05-23 05:41:00,
2013-05-23 00:45:00,64.2,55.0,29.26,ENE,68,0.0,0.0,72,0.00,,---,0.00,VWS V14.01,2013-05-23 05:45:00,
2013-05-23 00:50:00,64.2,55.0,29.26,ENE,68,0.0,0.0,72,0.00,,---,0.00,VWS V14.01,2013-05-23 05:50:00,
2013-05-23 00:55:00,64.2,55.0,29.26,ENE,68,0.0,0.0,72,0.00,,---,0.00,VWS V14.01,2013-05-23 05:55:00,
2013-05-23 01:00:00,64.2,55.4,29.26,ENE,68,0.0,0.0,73,0.00,,---,0.00,VWS V14.01,2013-05-23 06:00:00,
2013-05-23 01:05:00,64.2,55.4,29.29,ENE,68,0.0,0.0,73,0.00,,---,0.00,VWS V14.01,2013-05-23 06:05:00,
2013-05-23 01:10:00,64.2,55.4,29.29,ENE,68,0.0,0.0,73,0.00,,---,0.00,VWS V14.01,2013-05-23 06:10:00,
2013-05-23 01:15:00,64.2,55.4,29.29,ENE,68,0.0,0.0,73,0.00,,---,0.00,VWS V14.01,2013-05-23 06:15:00,
2013-05-23 01:20:00,64.2,55.4,29.26,ENE,68,0.0,0.0,73,0.00,,---,0.00,VWS V14.01,2013-05-23 06:20:00,
2013-05-23 01:25:00,64.0,55.2,29.26,ENE,68,0.0,0.0,73,0.00,,---,0.00,VWS V14.01,2013-05-23 06:25:00,
2013-05-23 01:30:00,64.0,55.2,29.26,ENE,68,0.0,0.0,73,0.00,,---,0.00,VWS V14.01,2013-05-23 06:30:00,
2013-05-23 01:35:00,64.0,55.2,29.26,ENE,68,0.0,0.0,73,0.00,,---,0.00,VWS V14.01,2013-05-23 06:35:00,
2013-05-23 01:40:00,64.0,55.2,29.26,ENE,68,0.0,0.0,73,0.00,,---,0.00,VWS V14.01,2013-05-23 06:40:00,
2013-05-23 01:45:00,63.9,55.0,29.26,ENE,68,0.0,0.0,73,0.00,,---,0.00,VWS V14.01,2013-05-23 06:45:00,
2013-05-23 01:50:00,63.9,55.0,29.26,ENE,68,0.0,0.0,73,0.00,,---,0.00,VWS V14.01,2013-05-23 06:50:00,
2013-05-23 01:55:00,63.9,55.0,29.26,ENE,68,0.0,0.0,73,0.00,,---,0.00,VWS V14.01,2013-05-23 06:55:00,
2013-05-23 02:00:00,63.7,55.2,29.26,ENE,68,0.0,0.0,74,0.00,,---,0.00,VWS V14.01,2013-05-23 07:00:00,
2013-05-23 02:05:00,63.7,55.2,29.26,ENE,68,0.0,0.0,74,0.00,,---,0.00,VWS V14.01,2013-05-23 07:05:00,
2013-05-23 02:10:00,63.7,55.2,29.26,ENE,68,0.0,0.0,74,0.00,,---,0.00,VWS V14.01,2013-05-23 07:10:00,
2013-05-23 02:15:00,63.7,55.6,29.26,ENE,68,0.0,0.0,75,0.00,,---,0.00,VWS V14.01,2013-05-23 07:15:00,
2013-05-23 02:20:00,63.7,55.6,29.26,ENE,68,0.0,0.0,75,0.00,,---,0.00,VWS V14.01,2013-05-23 07:20:00,
2013-05-23 02:25:00,63.7,56.0,29.26,ENE,68,0.0,0.0,76,0.00,,---,0.00,VWS V14.01,2013-05-23 07:25:00,
2013-05-23 02:30:00,63.7,56.0,29.26,ENE,68,0.0,0.0,76,0.00,,---,0.00,VWS V14.01,2013-05-23 07:30:00,
2013-05-23 02:35:00,63.7,56.0,29.26,ENE,68,0.0,0.0,76,0.00,,---,0.00,VWS V14.01,2013-05-23 07:35:00,
2013-05-23 02:40:00,63.5,55.8,29.26,ENE,68,0.0,0.0,76,0.00,,---,0.00,VWS V14.01,2013-05-23 07:40:00,
2013-05-23 02:45:00,63.5,55.8,29.26,ENE,68,0.0,0.0,76,0.00,,---,0.00,VWS V14.01,2013-05-23 07:45:00,
2013-05-23 02:50:00,63.5,55.8,29.26,ENE,68,0.0,0.0,76,0.00,,---,0.00,VWS V14.01,2013-05-23 07:50:00,
2013-05-23 02:55:00,63.3,55.6,29.26,ENE,68,0.0,0.0,76,0.00,,---,0.00,VWS V14.01,2013-05-23 07:55:00,
2013-05-23 03:00:00,63.3,55.6,29.26,ENE,68,0.0,0.0,76,0.00,,---,0.00,VWS V14.01,2013-05-23 08:00:00,
2013-05-23 03:05:00,63.3,56.0,29.23,ENE,68,0.0,0.0,77,0.00,,---,0.00,VWS V14.01,2013-05-23 08:05:00,
2013-05-23 03:10:00,63.3,56.0,29.23,ENE,68,0.0,0.0,77,0.00,,---,0.00,VWS V14.01,2013-05-23 08:10:00,
2013-05-23 03:15:00,63.3,56.0,29.23,ENE,68,0.0,0.0,77,0.00,,---,0.00,VWS V14.01,2013-05-23 08:15:00,
2013-05-23 03:20:00,63.3,56.0,29.26,ENE,68,0.0,0.0,77,0.00,,---,0.00,VWS V14.01,2013-05-23 08:20:00,
2013-05-23 03:25:00,63.3,56.3,29.26,ENE,68,0.0,0.0,78,0.00,,---,0.00,VWS V14.01,2013-05-23 08:25:00,
2013-05-23 03:30:00,63.3,56.3,29.26,ENE,68,0.0,0.0,78,0.00,,---,0.00,VWS V14.01,2013-05-23 08:30:00,
2013-05-23 03:35:00,63.3,56.3,29.26,ENE,68,0.0,0.0,78,0.00,,---,0.00,VWS V14.01,2013-05-23 08:35:00,
2013-05-23 03:40:00,63.5,56.5,29.26,ENE,68,0.0,0.0,78,0.00,,---,0.00,VWS V14.01,2013-05-23 08:40:00,
2013-05-23 03:45:00,63.5,56.9,29.26,ENE,68,0.0,0.0,79,0.00,,---,0.00,VWS V14.01,2013-05-23 08:45:00,
2013-05-23 03:50:00,63.5,56.9,29.26,ENE,68,0.0,0.0,79,0.00,,---,0.00,VWS V14.01,2013-05-23 08:50:00,
2013-05-23 03:55:00,63.5,56.5,29.26,ENE,68,0.0,0.0,78,0.00,,---,0.00,VWS V14.01,2013-05-23 08:55:00,
2013-05-23 04:00:00,63.3,56.3,29.26,ENE,68,0.0,0.0,78,0.00,,---,0.00,VWS V14.01,2013-05-23 09:00:00,
2013-05-23 04:05:00,63.3,56.7,29.26,ENE,68,0.0,0.0,79,0.00,,---,0.00,VWS V14.01,2013-05-23 09:05:00,
2013-05-23 04:10:00,63.3,56.7,29.26,ENE,68,0.0,0.0,79,0.00,,---,0.00,VWS V14.01,2013-05-23 09:10:00,
2013-05-23 04:15:00,63.1,56.2,29.26,ENE,68,0.0,0.0,78,0.00,,---,0.00,VWS V14.01,2013-05-23 09:15:00,
2013-05-23 04:20:00,63.1,56.2,29.29,ENE,68,0.0,0.0,78,0.00,,---,0.00,VWS V14.01,2013-05-23 09:20:00,
2013-05-23 04:25:00,63.1,56.5,29.29,ENE,68,0.0,0.0,79,0.00,,---,0.00,VWS V14.01,2013-05-23 09:25:00,
2013-05-23 04:30:00,63.1,56.5,29.29,ENE,68,0.0,0.0,79,0.00,,---,0.00,VWS V14.01,2013-05-23 09:30:00,
2013-05-23 04:35:00,63.0,56.0,29.29,ENE,68,0.0,0.0,78,0.00,,---,0.00,VWS V14.01,2013-05-23 09:35:00,
2013-05-23 04:40:00,63.0,56.3,29.29,ENE,68,0.0,0.0,79,0.00,,---,0.00,VWS V14.01,2013-05-23 09:40:00,
2013-05-23 04:45:00,63.0,56.3,29.29,ENE,68,0.0,0.0,79,0.00,,---,0.00,VWS V14.01,2013-05-23 09:45:00,
2013-05-23 04:50:00,62.8,56.2,29.29,ENE,68,0.0,0.0,79,0.00,,---,0.00,VWS V14.01,2013-05-23 09:50:00,
2013-05-23 04:55:00,62.8,56.2,29.29,ENE,68,0.0,0.0,79,0.00,,---,0.00,VWS V14.01,2013-05-23 09:55:00,
2013-05-23 05:00:00,62.8,56.2,29.29,ENE,68,0.0,0.0,79,0.00,,---,0.00,VWS V14.01,2013-05-23 10:00:00,
2013-05-23 05:05:00,62.8,56.5,29.29,ENE,68,0.0,0.0,80,0.00,,---,0.00,VWS V14.01,2013-05-23 10:05:00,
2013-05-23 05:10:00,62.8,56.5,29.29,ENE,68,0.0,0.0,80,0.00,,---,0.00,VWS V14.01,2013-05-23 10:10:00,
2013-05-23 05:15:00,62.8,56.5,29.29,ENE,68,0.0,0.0,80,0.00,,---,0.00,VWS V14.01,2013-05-23 10:15:00,
2013-05-23 05:20:00,62.8,56.5,29.29,ENE,68,0.0,0.0,80,0.00,,---,0.00,VWS V14.01,2013-05-23 10:20:00,
2013-05-23 05:25:00,62.8,56.5,29.29,ENE,68,0.0,0.0,80,0.00,,---,0.00,VWS V14.01,2013-05-23 10:25:00,
2013-05-23 05:30:00,62.8,56.5,29.29,ENE,68,0.0,0.0,80,0.00,,---,0.00,VWS V14.01,2013-05-23 10:30:00,
2013-05-23 05:35:00,62.8,56.5,29.32,ENE,68,0.0,0.0,80,0.00,,---,0.00,VWS V14.01,2013-05-23 10:35:00,
2013-05-23 05:40:00,62.6,56.3,29.32,ENE,68,0.0,0.0,80,0.00,,---,0.00,VWS V14.01,2013-05-23 10:40:00,
2013-05-23 05:45:00,62.6,56.7,29.32,ENE,68,0.0,0.0,81,0.00,,---,0.00,VWS V14.01,2013-05-23 10:45:00,
2013-05-23 05:50:00,62.6,56.7,29.32,ENE,68,0.0,0.0,81,0.00,,---,0.00,VWS V14.01,2013-05-23 10:50:00,
2013-05-23 05:55:00,62.8,56.9,29.32,ENE,68,0.0,0.0,81,0.00,,---,0.00,VWS V14.01,2013-05-23 10:55:00,
2013-05-23 06:00:00,62.8,56.9,29.32,ENE,68,0.0,0.0,81,0.00,,---,0.00,VWS V14.01,2013-05-23 11:00:00,
2013-05-23 06:05:00,62.8,57.2,29.32,ENE,68,0.0,0.0,82,0.00,,---,0.00,VWS V14.01,2013-05-23 11:05:00,
2013-05-23 06:10:00,63.0,57.4,29.32,ENE,68,0.0,0.0,82,0.00,,---,0.00,VWS V14.01,2013-05-23 11:10:00,
2013-05-23 06:15:00,63.0,57.4,29.32,ENE,68,0.0,0.0,82,0.00,,---,0.00,VWS V14.01,2013-05-23 11:15:00,
2013-05-23 06:20:00,63.1,57.9,29.35,ENE,68,0.0,0.0,83,0.00,,---,0.00,VWS V14.01,2013-05-23 11:20:00,
2013-05-23 06:25:00,63.1,57.9,29.35,ENE,68,0.0,0.0,83,0.00,,---,0.00,VWS V14.01,2013-05-23 11:25:00,
2013-05-23 06:30:00,63.3,58.1,29.35,ENE,68,0.0,0.0,83,0.00,,---,0.00,VWS V14.01,2013-05-23 11:30:00,
2013-05-23 06:35:00,63.3,58.1,29.35,ENE,68,0.0,0.0,83,0.00,,---,0.00,VWS V14.01,2013-05-23 11:35:00,
2013-05-23 06:40:00,63.5,58.2,29.32,ENE,68,0.0,0.0,83,0.00,,---,0.00,VWS V14.01,2013-05-23 11:40:00,
2013-05-23 06:45:00,63.9,58.9,29.32,ENE,68,0.0,0.0,84,0.00,,---,0.00,VWS V14.01,2013-05-23 11:45:00,
2013-05-23 06:50:00,64.0,59.1,29.32,ENE,68,0.0,0.0,84,0.00,,---,0.00,VWS V14.01,2013-05-23 11:50:00,
2013-05-23 06:55:00,64.2,59.6,29.32,ENE,68,0.0,0.0,85,0.00,,---,0.00,VWS V14.01,2013-05-23 11:55:00,
2013-05-23 07:00:00,64.4,59.5,29.32,ENE,68,0.0,0.0,84,0.00,,---,0.00,VWS V14.01,2013-05-23 12:00:00,
2013-05-23 07:05:00,64.4,59.1,29.32,ENE,68,0.0,0.0,83,0.00,,---,0.00,VWS V14.01,2013-05-23 12:05:00,
2013-05-23 07:10:00,64.6,59.3,29.32,ENE,68,0.0,0.0,83,0.00,,---,0.00,VWS V14.01,2013-05-23 12:10:00,
2013-05-23 07:15:00,64.8,59.5,29.32,ENE,68,0.0,0.0,83,0.00,,---,0.00,VWS V14.01,2013-05-23 12:15:00,
2013-05-23 07:20:00,64.8,59.5,29.32,ENE,68,0.0,0.0,83,0.00,,---,0.00,VWS V14.01,2013-05-23 12:20:00,
2013-05-23 07:25:00,65.1,59.8,29.32,ENE,68,0.0,0.0,83,0.00,,---,0.00,VWS V14.01,2013-05-23 12:25:00,
2013-05-23 07:30:00,65.3,60.3,29.32,ENE,68,0.0,0.0,84,0.00,,---,0.00,VWS V14.01,2013-05-23 12:30:00,
2013-05-23 07:35:00,65.7,60.4,29.32,ENE,68,0.0,0.0,83,0.00,,---,0.00,VWS V14.01,2013-05-23 12:35:00,
2013-05-23 07:40:00,65.8,60.5,29.32,ENE,68,0.0,0.0,83,0.00,,---,0.00,VWS V14.01,2013-05-23 12:40:00,
2013-05-23 07:45:00,66.0,61.0,29.32,ENE,68,0.0,0.0,84,0.00,,---,0.00,VWS V14.01,2013-05-23 12:45:00,
2013-05-23 07:50:00,66.2,60.9,29.32,ENE,68,0.0,0.0,83,0.00,,---,0.00,VWS V14.01,2013-05-23 12:50:00,
2013-05-23 07:55:00,66.4,60.7,29.29,ENE,68,0.0,0.0,82,0.00,,---,0.00,VWS V14.01,2013-05-23 12:55:00,
2013-05-23 08:00:00,66.6,60.9,29.29,ENE,68,0.0,0.0,82,0.00,,---,0.00,VWS V14.01,2013-05-23 13:00:00,
2013-05-23 08:04:00,66.9,61.2,29.29,ENE,68,0.0,0.0,82,0.00,,---,0.00,VWS V14.01,2013-05-23 13:04:00,
2013-05-23 08:09:00,67.3,61.6,29.32,ENE,68,0.0,0.0,82,0.00,,---,0.00,VWS V14.01,2013-05-23 13:09:00,
2013-05-23 08:14:00,67.5,61.8,29.32,ENE,68,0.0,0.0,82,0.00,,---,0.00,VWS V14.01,2013-05-23 13:14:00,
2013-05-23 08:19:00,67.6,61.6,29.32,ENE,68,1.1,2.5,81,0.00,,---,0.00,VWS V14.01,2013-05-23 13:19:00,
2013-05-23 08:24:00,68.4,60.5,29.32,ENE,68,0.0,0.0,76,0.00,,---,0.00,VWS V14.01,2013-05-23 13:24:00,
2013-05-23 08:29:00,69.1,60.5,29.32,ENE,68,0.0,0.0,74,0.00,,---,0.00,VWS V14.01,2013-05-23 13:29:00,
2013-05-23 08:34:00,69.6,59.4,29.32,ENE,68,0.0,3.6,70,0.00,,---,0.00,VWS V14.01,2013-05-23 13:34:00,
2013-05-23 08:39:00,69.8,58.4,29.32,ENE,68,0.0,0.0,67,0.00,,---,0.00,VWS V14.01,2013-05-23 13:39:00,
2013-05-23 08:44:00,70.2,56.5,29.32,ENE,68,0.0,0.0,62,0.00,,---,0.00,VWS V14.01,2013-05-23 13:44:00,
2013-05-23 08:49:00,70.3,55.3,29.32,ENE,68,3.1,3.1,59,0.00,,---,0.00,VWS V14.01,2013-05-23 13:49:00,
2013-05-23 08:54:00,70.2,54.2,29.32,ENE,68,0.0,0.0,57,0.00,,---,0.00,VWS V14.01,2013-05-23 13:54:00,
2013-05-23 08:59:00,70.5,56.0,29.32,ENE,68,0.0,0.0,60,0.00,,---,0.00,VWS V14.01,2013-05-23 13:59:00,
2013-05-23 09:04:00,70.7,55.2,29.32,ENE,68,0.0,0.0,58,0.00,,---,0.00,VWS V14.01,2013-05-23 14:04:00,
2013-05-23 09:09:00,70.9,52.9,29.32,ENE,68,0.0,0.0,53,0.00,,---,0.00,VWS V14.01,2013-05-23 14:09:00,
2013-05-23 09:14:00,71.2,53.8,29.32,ENE,68,0.0,0.0,54,0.00,,---,0.00,VWS V14.01,2013-05-23 14:14:00,
2013-05-23 09:19:00,71.8,53.2,29.32,ENE,68,1.1,1.1,52,0.00,,---,0.00,VWS V14.01,2013-05-23 14:19:00,
2013-05-23 09:24:00,72.1,53.0,29.32,ENE,68,0.0,0.0,51,0.00,,---,0.00,VWS V14.01,2013-05-23 14:24:00,
2013-05-23 09:29:00,72.3,53.2,29.32,ENE,68,0.0,0.0,51,0.00,,---,0.00,VWS V14.01,2013-05-23 14:29:00,
2013-05-23 09:34:00,72.5,52.8,29.32,ENE,68,3.1,3.1,50,0.00,,---,0.00,VWS V14.01,2013-05-23 14:34:00,
2013-05-23 09:39:00,72.5,52.8,29.32,ENE,68,0.0,0.0,50,0.00,,---,0.00,VWS V14.01,2013-05-23 14:39:00,
2013-05-23 09:44:00,73.0,50.5,29.32,ENE,68,0.0,0.0,45,0.00,,---,0.00,VWS V14.01,2013-05-23 14:44:00,
2013-05-23 09:49:00,73.6,50.3,29.32,ENE,68,3.4,3.4,44,0.00,,---,0.00,VWS V14.01,2013-05-23 14:49:00,
2013-05-23 09:54:00,73.9,49.4,29.35,ENE,68,2.5,3.6,42,0.00,,---,0.00,VWS V14.01,2013-05-23 14:54:00,
2013-05-23 09:59:00,75.0,49.8,29.35,ENE,68,0.0,1.6,41,0.00,,---,0.00,VWS V14.01,2013-05-23 14:59:00,
2013-05-23 10:04:00,75.6,50.2,29.35,ENE,68,0.0,0.0,41,0.00,,---,0.00,VWS V14.01,2013-05-23 15:04:00,
2013-05-23 10:09:00,76.8,47.1,29.35,ENE,68,0.0,4.7,35,0.00,,---,0.00,VWS V14.01,2013-05-23 15:09:00,
2013-05-23 10:14:00,78.3,46.8,29.35,ENE,68,2.9,5.8,33,0.00,,---,0.00,VWS V14.01,2013-05-23 15:14:00,
2013-05-23 10:19:00,77.5,46.2,29.35,ENE,68,2.0,2.0,33,0.00,,---,0.00,VWS V14.01,2013-05-23 15:19:00,
2013-05-23 10:24:00,79.2,46.0,29.32,ENE,68,0.0,0.0,31,0.00,,---,0.00,VWS V14.01,2013-05-23 15:24:00,
2013-05-23 10:29:00,80.1,45.9,29.32,ENE,68,2.2,3.6,30,0.00,,---,0.00,VWS V14.01,2013-05-23 15:29:00,
2013-05-23 10:34:00,79.9,45.7,29.32,ENE,68,2.7,4.3,30,0.00,,---,0.00,VWS V14.01,2013-05-23 15:34:00,
2013-05-23 10:39:00,80.6,43.6,29.32,ENE,68,4.3,4.3,27,0.00,,---,0.00,VWS V14.01,2013-05-23 15:39:00,
2013-05-23 10:44:00,81.3,45.1,29.32,ENE,68,4.0,4.9,28,0.00,,---,0.00,VWS V14.01,2013-05-23 15:44:00,
2013-05-23 10:49:00,81.9,41.6,29.32,ENE,68,3.4,3.8,24,0.00,,---,0.00,VWS V14.01,2013-05-23 15:49:00,
2013-05-23 10:54:00,83.1,45.7,29.29,ENE,68,0.0,0.0,27,0.00,,---,0.00,VWS V14.01,2013-05-23 15:54:00,
2013-05-23 10:59:00,84.0,46.5,29.29,ENE,68,4.3,4.3,27,0.00,,---,0.00,VWS V14.01,2013-05-23 15:59:00,
2013-05-23 11:04:00,83.7,43.1,29.29,ENE,68,5.4,5.8,24,0.00,,---,0.00,VWS V14.01,2013-05-23 16:04:00,
2013-05-23 11:09:00,83.1,40.4,29.32,ENE,68,3.4,3.8,22,0.00,,---,0.00,VWS V14.01,2013-05-23 16:09:00,
2013-05-23 11:14:00,82.8,38.9,29.32,ENE,68,3.6,8.5,21,0.00,,---,0.00,VWS V14.01,2013-05-23 16:14:00,
2013-05-23 11:19:00,83.1,40.4,29.32,ENE,68,4.3,4.9,22,0.00,,---,0.00,VWS V14.01,2013-05-23 16:19:00,
2013-05-23 11:24:00,83.1,39.2,29.32,ENE,68,3.8,7.6,21,0.00,,---,0.00,VWS V14.01,2013-05-23 16:24:00,
2013-05-23 11:29:00,84.0,41.1,29.32,ENE,68,2.9,2.9,22,0.00,,---,0.00,VWS V14.01,2013-05-23 16:29:00,
2013-05-23 11:34:00,84.4,40.2,29.32,ENE,68,3.8,5.8,21,0.00,,---,0.00,VWS V14.01,2013-05-23 16:34:00,
2013-05-23 11:39:00,84.6,39.1,29.32,ENE,68,3.8,6.5,20,0.00,,---,0.00,VWS V14.01,2013-05-23 16:39:00,
2013-05-23 11:44:00,84.2,38.8,29.32,ENE,68,6.3,6.5,20,0.00,,---,0.00,VWS V14.01,2013-05-23 16:44:00,
2013-05-23 11:49:00,84.2,38.8,29.32,ENE,68,3.1,5.6,20,0.00,,---,0.00,VWS V14.01,2013-05-23 16:49:00,
2013-05-23 11:54:00,84.0,38.7,29.32,ENE,68,2.9,4.0,20,0.00,,---,0.00,VWS V14.01,2013-05-23 16:54:00,
2013-05-23 11:59:00,84.6,39.1,29.32,ENE,68,2.5,4.9,20,0.00,,---,0.00,VWS V14.01,2013-05-23 16:59:00,
2013-05-23 12:04:00,85.3,41.0,29.32,ENE,68,0.0,2.2,21,0.00,,---,0.00,VWS V14.01,2013-05-23 17:04:00,
2013-05-23 12:09:00,86.0,40.3,29.32,ENE,68,3.1,3.1,20,0.00,,---,0.00,VWS V14.01,2013-05-23 17:09:00,
2013-05-23 12:14:00,85.8,40.2,29.32,ENE,68,3.6,3.6,20,0.00,,---,0.00,VWS V14.01,2013-05-23 17:14:00,
2013-05-23 12:19:00,84.4,39.0,29.32,ENE,68,2.2,4.7,20,0.00,,---,0.00,VWS V14.01,2013-05-23 17:19:00,
2013-05-23 12:24:00,84.2,38.8,29.32,ENE,68,4.3,4.3,20,0.00,,---,0.00,VWS V14.01,2013-05-23 17:24:00,
2013-05-23 12:29:00,84.0,39.9,29.32,ENE,68,2.9,3.8,21,0.00,,---,0.00,VWS V14.01,2013-05-23 17:29:00,
2013-05-23 12:34:00,84.4,39.0,29.32,ENE,68,4.9,4.9,20,0.00,,---,0.00,VWS V14.01,2013-05-23 17:34:00,
2013-05-23 12:39:00,85.3,38.4,29.32,ENE,68,4.3,4.3,19,0.00,,---,0.00,VWS V14.01,2013-05-23 17:39:00,
2013-05-23 12:44:00,86.0,39.0,29.32,ENE,68,3.1,3.1,19,0.00,,---,0.00,VWS V14.01,2013-05-23 17:44:00,
2013-05-23 12:49:00,85.6,38.7,29.32,ENE,68,0.9,1.6,19,0.00,,---,0.00,VWS V14.01,2013-05-23 17:49:00,
2013-05-23 12:54:00,85.8,38.8,29.32,ENE,68,2.5,6.0,19,0.00,,---,0.00,VWS V14.01,2013-05-23 17:54:00,
2013-05-23 12:59:00,85.8,38.8,29.32,ENE,68,0.0,2.0,19,0.00,,---,0.00,VWS V14.01,2013-05-23 17:59:00,
2013-05-23 13:04:00,86.7,39.6,29.32,ENE,68,3.4,5.6,19,0.00,,---,0.00,VWS V14.01,2013-05-23 18:04:00,
2013-05-23 13:09:00,87.1,39.9,29.32,ENE,68,1.1,4.0,19,0.00,,---,0.00,VWS V14.01,2013-05-23 18:09:00,
2013-05-23 13:14:00,86.2,37.8,29.32,ENE,68,4.3,5.8,18,0.00,,---,0.00,VWS V14.01,2013-05-23 18:14:00,
2013-05-23 13:19:00,86.5,38.0,29.32,ENE,68,3.8,10.5,18,0.00,,---,0.00,VWS V14.01,2013-05-23 18:19:00,
2013-05-23 13:24:00,87.4,38.8,29.29,ENE,68,1.3,2.9,18,0.00,,---,0.00,VWS V14.01,2013-05-23 18:24:00,
2013-05-23 13:29:00,87.1,38.5,29.29,ENE,68,3.8,5.8,18,0.00,,---,0.00,VWS V14.01,2013-05-23 18:29:00,
2013-05-23 13:34:00,87.3,38.6,29.29,ENE,68,2.5,3.4,18,0.00,,---,0.00,VWS V14.01,2013-05-23 18:34:00,
2013-05-23 13:39:00,86.5,38.0,29.32,ENE,68,2.7,4.0,18,0.00,,---,0.00,VWS V14.01,2013-05-23 18:39:00,
2013-05-23 13:44:00,87.1,38.5,29.32,ENE,68,6.7,6.7,18,0.00,,---,0.00,VWS V14.01,2013-05-23 18:44:00,
2013-05-23 13:49:00,87.3,38.6,29.32,ENE,68,3.4,4.0,18,0.00,,---,0.00,VWS V14.01,2013-05-23 18:49:00,
2013-05-23 13:54:00,87.1,38.5,29.32,ENE,68,3.1,3.8,18,0.00,,---,0.00,VWS V14.01,2013-05-23 18:54:00,
2013-05-23 13:59:00,87.6,38.9,29.32,ENE,68,2.7,2.7,18,0.00,,---,0.00,VWS V14.01,2013-05-23 18:59:00,
2013-05-23 14:04:00,88.2,39.4,29.32,ENE,68,2.5,2.5,18,0.00,,---,0.00,VWS V14.01,2013-05-23 19:04:00,
2013-05-23 14:09:00,89.2,40.2,29.32,ENE,68,5.6,5.6,18,0.00,,---,0.00,VWS V14.01,2013-05-23 19:09:00,
2013-05-23 14:14:00,88.0,39.2,29.32,ENE,68,7.8,7.8,18,0.00,,---,0.00,VWS V14.01,2013-05-23 19:14:00,
2013-05-23 14:19:00,88.0,39.2,29.32,ENE,68,3.4,3.6,18,0.00,,---,0.00,VWS V14.01,2013-05-23 19:19:00,
2013-05-23 14:24:00,88.3,39.5,29.29,ENE,68,3.8,3.8,18,0.00,,---,0.00,VWS V14.01,2013-05-23 19:24:00,
2013-05-23 14:29:00,87.8,39.1,29.29,ENE,68,6.3,6.3,18,0.00,,---,0.00,VWS V14.01,2013-05-23 19:29:00,
2013-05-23 14:34:00,86.5,38.0,29.29,ENE,68,3.8,3.8,18,0.00,,---,0.00,VWS V14.01,2013-05-23 19:34:00,
2013-05-23 14:38:00,87.3,38.6,29.35,ENE,68,1.6,1.6,18,0.00,,---,0.00,VWS V14.01,2013-05-23 19:38:00,
2013-05-23 14:43:00,86.0,37.6,29.35,ENE,68,2.7,2.7,18,0.00,,---,0.00,VWS V14.01,2013-05-23 19:43:00,
2013-05-23 14:48:00,87.1,38.5,29.35,ENE,68,0.0,0.9,18,0.00,,---,0.00,VWS V14.01,2013-05-23 19:48:00,
2013-05-23 14:53:00,86.0,37.6,29.32,ENE,68,3.1,4.9,18,0.00,,---,0.00,VWS V14.01,2013-05-23 19:53:00,
2013-05-23 14:58:00,85.8,37.5,29.32,ENE,68,0.0,2.2,18,0.00,,---,0.00,VWS V14.01,2013-05-23 19:58:00,
2013-05-23 15:03:00,85.8,37.5,29.32,ENE,68,0.9,2.7,18,0.00,,---,0.00,VWS V14.01,2013-05-23 20:03:00,
2013-05-23 15:08:00,87.6,38.9,29.32,ENE,68,0.9,0.9,18,0.00,,---,0.00,VWS V14.01,2013-05-23 20:08:00,
2013-05-23 15:13:00,86.4,37.9,29.32,ENE,68,2.0,2.9,18,0.00,,---,0.00,VWS V14.01,2013-05-23 20:13:00,
2013-05-23 15:18:00,85.1,36.9,29.32,ENE,68,3.1,3.1,18,0.00,,---,0.00,VWS V14.01,2013-05-23 20:18:00,
2013-05-23 15:23:00,85.5,37.2,29.32,ENE,68,5.6,5.6,18,0.00,,---,0.00,VWS V14.01,2013-05-23 20:23:00,
2013-05-23 15:28:00,86.0,37.6,29.32,ENE,68,2.5,2.9,18,0.00,,---,0.00,VWS V14.01,2013-05-23 20:28:00,
2013-05-23 15:33:00,85.8,37.5,29.32,ENE,68,3.4,3.4,18,0.00,,---,0.00,VWS V14.01,2013-05-23 20:33:00,
2013-05-23 15:38:00,85.6,37.3,29.32,ENE,68,1.3,1.3,18,0.00,,---,0.00,VWS V14.01,2013-05-23 20:38:00,
2013-05-23 15:43:00,86.7,38.2,29.32,ENE,68,0.0,0.0,18,0.00,,---,0.00,VWS V14.01,2013-05-23 20:43:00,
2013-05-23 15:48:00,86.4,37.9,29.32,ENE,68,2.0,2.0,18,0.00,,---,0.00,VWS V14.01,2013-05-23 20:48:00,
2013-05-23 15:53:00,85.8,37.5,29.32,ENE,68,2.0,2.0,18,0.00,,---,0.00,VWS V14.01,2013-05-23 20:53:00,
2013-05-23 15:58:00,86.4,37.9,29.32,ENE,68,1.3,1.3,18,0.00,,---,0.00,VWS V14.01,2013-05-23 20:58:00,
2013-05-23 16:03:00,85.1,36.9,29.32,ENE,68,2.5,2.5,18,0.00,,---,0.00,VWS V14.01,2013-05-23 21:03:00,
2013-05-23 16:08:00,83.5,36.9,29.32,ENE,68,1.1,1.1,19,0.00,,---,0.00,VWS V14.01,2013-05-23 21:08:00,
2013-05-23 16:13:00,82.6,36.2,29.32,ENE,68,3.1,3.1,19,0.00,,---,0.00,VWS V14.01,2013-05-23 21:13:00,
2013-05-23 16:18:00,83.3,36.8,29.32,ENE,68,2.9,2.9,19,0.00,,---,0.00,VWS V14.01,2013-05-23 21:18:00,
2013-05-23 16:23:00,84.2,37.5,29.32,ENE,68,0.0,0.0,19,0.00,,---,0.00,VWS V14.01,2013-05-23 21:23:00,
2013-05-23 16:28:00,82.2,37.2,29.32,ENE,68,2.7,4.7,20,0.00,,---,0.00,VWS V14.01,2013-05-23 21:28:00,
2013-05-23 16:33:00,80.8,36.0,29.32,ENE,68,0.0,0.0,20,0.00,,---,0.00,VWS V14.01,2013-05-23 21:33:00,
2013-05-23 16:38:00,80.2,35.6,29.32,ENE,68,0.0,2.5,20,0.00,,---,0.00,VWS V14.01,2013-05-23 21:38:00,
2013-05-23 16:43:00,79.9,35.3,29.32,ENE,68,0.0,1.3,20,0.00,,---,0.00,VWS V14.01,2013-05-23 21:43:00,
2013-05-23 16:48:00,81.1,36.3,29.32,ENE,68,2.7,2.7,20,0.00,,---,0.00,VWS V14.01,2013-05-23 21:48:00,
2013-05-23 16:53:00,82.4,36.0,29.32,ENE,68,3.6,3.8,19,0.00,,---,0.00,VWS V14.01,2013-05-23 21:53:00,
2013-05-23 16:58:00,83.3,36.8,29.32,ENE,68,0.0,0.0,19,0.00,,---,0.00,VWS V14.01,2013-05-23 21:58:00,
2013-05-23 17:03:00,83.1,36.6,29.32,ENE,68,3.1,4.7,19,0.00,,---,0.00,VWS V14.01,2013-05-23 22:03:00,
2013-05-23 17:08:00,83.5,36.9,29.32,ENE,68,1.6,1.6,19,0.00,,---,0.00,VWS V14.01,2013-05-23 22:08:00,
2013-05-23 17:13:00,83.5,36.9,29.32,ENE,68,5.6,5.6,19,0.00,,---,0.00,VWS V14.01,2013-05-23 22:13:00,
2013-05-23 17:18:00,83.5,36.9,29.32,ENE,68,6.3,6.3,19,0.00,,---,0.00,VWS V14.01,2013-05-23 22:18:00,
2013-05-23 17:23:00,84.0,37.4,29.32,ENE,68,1.3,1.3,19,0.00,,---,0.00,VWS V14.01,2013-05-23 22:23:00,
2013-05-23 17:28:00,83.3,36.8,29.32,ENE,68,2.5,2.7,19,0.00,,---,0.00,VWS V14.01,2013-05-23 22:28:00,
2013-05-23 17:33:00,82.0,37.0,29.32,ENE,68,0.0,0.0,20,0.00,,---,0.00,VWS V14.01,2013-05-23 22:33:00,
2013-05-23 17:38:00,81.1,36.3,29.32,ENE,68,2.2,2.2,20,0.00,,---,0.00,VWS V14.01,2013-05-23 22:38:00,
2013-05-23 17:43:00,80.1,35.4,29.32,ENE,68,1.1,1.6,20,0.00,,---,0.00,VWS V14.01,2013-05-23 22:43:00,
2013-05-23 17:48:00,80.1,35.4,29.32,ENE,68,0.0,0.0,20,0.00,,---,0.00,VWS V14.01,2013-05-23 22:48:00,
2013-05-23 17:53:00,80.4,35.7,29.32,ENE,68,0.0,0.9,20,0.00,,---,0.00,VWS V14.01,2013-05-23 22:53:00,
2013-05-23 17:58:00,80.6,35.9,29.32,ENE,68,0.0,0.9,20,0.00,,---,0.00,VWS V14.01,2013-05-23 22:58:00,
2013-05-23 18:03:00,80.8,36.0,29.32,ENE,68,3.4,3.4,20,0.00,,---,0.00,VWS V14.01,2013-05-23 23:03:00,
2013-05-23 18:08:00,80.4,35.7,29.32,ENE,68,0.0,1.1,20,0.00,,---,0.00,VWS V14.01,2013-05-23 23:08:00,
2013-05-23 18:13:00,79.2,35.9,29.32,ENE,68,0.0,1.1,21,0.00,,---,0.00,VWS V14.01,2013-05-23 23:13:00,
2013-05-23 18:18:00,78.1,35.0,29.32,ENE,68,0.0,0.0,21,0.00,,---,0.00,VWS V14.01,2013-05-23 23:18:00,
2013-05-23 18:23:00,77.7,34.7,29.32,ENE,68,2.7,2.7,21,0.00,,---,0.00,VWS V14.01,2013-05-23 23:23:00,
2013-05-23 18:28:00,77.5,34.6,29.32,ENE,68,0.0,0.0,21,0.00,,---,0.00,VWS V14.01,2013-05-23 23:28:00,
2013-05-23 18:33:00,76.8,35.1,29.32,ENE,68,1.3,1.3,22,0.00,,---,0.00,VWS V14.01,2013-05-23 23:33:00,
2013-05-23 18:38:00,76.3,34.7,29.32,ENE,68,0.0,0.0,22,0.00,,---,0.00,VWS V14.01,2013-05-23 23:38:00,
2013-05-23 18:43:00,75.6,34.1,29.32,ENE,68,0.0,0.0,22,0.00,,---,0.00,VWS V14.01,2013-05-23 23:43:00,
2013-05-23 18:48:00,75.2,33.8,29.32,ENE,68,1.1,1.3,22,0.00,,---,0.00,VWS V14.01,2013-05-23 23:48:00,
2013-05-23 18:53:00,74.8,34.6,29.32,ENE,68,1.3,1.3,23,0.00,,---,0.00,VWS V14.01,2013-05-23 23:53:00,
2013-05-23 18:58:00,74.5,34.3,29.32,ENE,68,0.0,0.0,23,0.00,,---,0.00,VWS V14.01,2013-05-23 23:58:00,
2013-05-23 19:03:00,74.3,34.1,29.32,ENE,68,0.0,0.0,23,0.00,,---,0.00,VWS V14.01,2013-05-24 00:03:00,
2013-05-23 19:08:00,73.9,33.8,29.32,ENE,68,0.0,0.0,23,0.00,,---,0.00,VWS V14.01,2013-05-24 00:08:00,
2013-05-23 19:13:00,73.8,34.8,29.32,ENE,68,0.0,0.0,24,0.00,,---,0.00,VWS V14.01,2013-05-24 00:13:00,
2013-05-23 19:18:00,73.8,34.8,29.32,ENE,68,0.0,0.9,24,0.00,,---,0.00,VWS V14.01,2013-05-24 00:18:00,
2013-05-23 19:23:00,73.4,35.5,29.32,ENE,68,0.0,0.0,25,0.00,,---,0.00,VWS V14.01,2013-05-24 00:23:00,
2013-05-23 19:28:00,73.0,35.2,29.32,ENE,68,0.0,0.0,25,0.00,,---,0.00,VWS V14.01,2013-05-24 00:28:00,
2013-05-23 19:33:00,72.9,35.0,29.32,ENE,68,0.0,0.0,25,0.00,,---,0.00,VWS V14.01,2013-05-24 00:33:00,
2013-05-23 19:38:00,72.5,35.7,29.29,ENE,68,0.0,0.0,26,0.00,,---,0.00,VWS V14.01,2013-05-24 00:38:00,
2013-05-23 19:43:00,72.3,35.5,29.29,ENE,68,0.0,0.0,26,0.00,,---,0.00,VWS V14.01,2013-05-24 00:43:00,
2013-05-23 19:48:00,72.0,35.2,29.29,ENE,68,1.1,2.0,26,0.00,,---,0.00,VWS V14.01,2013-05-24 00:48:00,
2013-05-23 19:53:00,71.8,35.1,29.32,ENE,68,0.0,0.0,26,0.00,,---,0.00,VWS V14.01,2013-05-24 00:53:00,
2013-05-23 19:58:00,71.6,34.9,29.32,ENE,68,0.0,0.0,26,0.00,,---,0.00,VWS V14.01,2013-05-24 00:58:00,
2013-05-23 20:03:00,71.4,35.7,29.32,ENE,68,0.0,0.0,27,0.00,,---,0.00,VWS V14.01,2013-05-24 01:03:00,
2013-05-23 20:08:00,71.2,35.6,29.35,ENE,68,0.0,0.0,27,0.00,,---,0.00,VWS V14.01,2013-05-24 01:08:00,
2013-05-23 20:13:00,70.9,35.3,29.35,ENE,68,0.0,0.0,27,0.00,,---,0.00,VWS V14.01,2013-05-24 01:13:00,
2013-05-23 20:18:00,70.5,35.0,29.35,ENE,68,0.0,0.0,27,0.00,,---,0.00,VWS V14.01,2013-05-24 01:18:00,
2013-05-23 20:23:00,70.2,34.7,29.35,ENE,68,0.0,0.0,27,0.00,,---,0.00,VWS V14.01,2013-05-24 01:23:00,
2013-05-23 20:28:00,69.8,35.3,29.35,ENE,68,0.0,0.0,28,0.00,,---,0.00,VWS V14.01,2013-05-24 01:28:00,
2013-05-23 20:33:00,69.6,35.1,29.35,ENE,68,0.0,0.0,28,0.00,,---,0.00,VWS V14.01,2013-05-24 01:33:00,
2013-05-23 20:38:00,69.3,34.8,29.35,ENE,68,0.0,0.0,28,0.00,,---,0.00,VWS V14.01,2013-05-24 01:38:00,
2013-05-23 20:43:00,69.1,35.5,29.35,ENE,68,0.0,0.0,29,0.00,,---,0.00,VWS V14.01,2013-05-24 01:43:00,
2013-05-23 20:48:00,68.7,36.1,29.35,ENE,68,0.0,0.0,30,0.00,,---,0.00,VWS V14.01,2013-05-24 01:48:00,
2013-05-23 20:53:00,68.5,36.7,29.35,ENE,68,0.0,0.0,31,0.00,,---,0.00,VWS V14.01,2013-05-24 01:53:00,
2013-05-23 20:58:00,68.4,36.6,29.35,ENE,68,0.0,0.0,31,0.00,,---,0.00,VWS V14.01,2013-05-24 01:58:00,
2013-05-23 21:03:00,68.0,37.1,29.35,ENE,68,0.0,0.0,32,0.00,,---,0.00,VWS V14.01,2013-05-24 02:03:00,
2013-05-23 21:07:00,67.8,37.7,29.35,ENE,68,0.0,0.0,33,0.00,,---,0.00,VWS V14.01,2013-05-24 02:07:00,
2013-05-23 21:12:00,67.6,37.5,29.35,ENE,68,0.0,0.0,33,0.00,,---,0.00,VWS V14.01,2013-05-24 02:12:00,
2013-05-23 21:17:00,67.5,37.4,29.35,ENE,68,0.0,0.0,33,0.00,,---,0.00,VWS V14.01,2013-05-24 02:17:00,
2013-05-23 21:22:00,67.3,37.2,29.35,ENE,68,0.0,0.0,33,0.00,,---,0.00,VWS V14.01,2013-05-24 02:22:00,
2013-05-23 21:27:00,67.3,37.2,29.35,ENE,68,0.0,0.0,33,0.00,,---,0.00,VWS V14.01,2013-05-24 02:27:00,
2013-05-23 21:32:00,67.1,37.1,29.35,ENE,68,0.0,0.0,33,0.00,,---,0.00,VWS V14.01,2013-05-24 02:32:00,
2013-05-23 21:37:00,66.9,36.9,29.35,ENE,68,0.0,0.0,33,0.00,,---,0.00,VWS V14.01,2013-05-24 02:37:00,
2013-05-23 21:42:00,66.7,36.8,29.35,ENE,68,0.0,0.0,33,0.00,,---,0.00,VWS V14.01,2013-05-24 02:42:00,
2013-05-23 21:47:00,66.6,37.3,29.35,ENE,68,0.0,0.0,34,0.00,,---,0.00,VWS V14.01,2013-05-24 02:47:00,
2013-05-23 21:52:00,66.4,37.2,29.35,ENE,68,0.0,0.0,34,0.00,,---,0.00,VWS V14.01,2013-05-24 02:52:00,
2013-05-23 21:57:00,66.2,37.0,29.35,ENE,68,0.0,0.0,34,0.00,,---,0.00,VWS V14.01,2013-05-24 02:57:00,
2013-05-23 22:02:00,66.2,37.0,29.35,ENE,68,0.0,0.0,34,0.00,,---,0.00,VWS V14.01,2013-05-24 03:02:00,
2013-05-23 22:07:00,66.0,36.9,29.38,ENE,68,0.0,0.0,34,0.00,,---,0.00,VWS V14.01,2013-05-24 03:07:00,
2013-05-23 22:12:00,66.0,36.9,29.38,ENE,68,0.0,0.0,34,0.00,,---,0.00,VWS V14.01,2013-05-24 03:12:00,
2013-05-23 22:17:00,65.8,37.5,29.38,ENE,68,0.0,0.0,35,0.00,,---,0.00,VWS V14.01,2013-05-24 03:17:00,
2013-05-23 22:22:00,65.7,37.3,29.35,ENE,68,0.0,0.0,35,0.00,,---,0.00,VWS V14.01,2013-05-24 03:22:00,
2013-05-23 22:27:00,65.7,37.3,29.35,ENE,68,0.0,0.0,35,0.00,,---,0.00,VWS V14.01,2013-05-24 03:27:00,
2013-05-23 22:32:00,65.5,37.1,29.35,ENE,68,0.0,0.0,35,0.00,,---,0.00,VWS V14.01,2013-05-24 03:32:00,
2013-05-23 22:37:00,65.5,37.1,29.38,ENE,68,0.0,0.0,35,0.00,,---,0.00,VWS V14.01,2013-05-24 03:37:00,
2013-05-23 22:42:00,65.3,37.7,29.38,ENE,68,0.0,0.0,36,0.00,,---,0.00,VWS V14.01,2013-05-24 03:42:00,
2013-05-23 22:47:00,65.3,37.7,29.38,ENE,68,0.0,0.0,36,0.00,,---,0.00,VWS V14.01,2013-05-24 03:47:00,
2013-05-23 22:52:00,65.1,37.5,29.38,ENE,68,0.0,0.0,36,0.00,,---,0.00,VWS V14.01,2013-05-24 03:52:00,
2013-05-23 22:57:00,64.9,37.4,29.38,ENE,68,0.0,0.0,36,0.00,,---,0.00,VWS V14.01,2013-05-24 03:57:00,
2013-05-23 23:01:00,64.9,37.4,29.38,ENE,68,0.0,0.0,36,0.00,,---,0.00,VWS V14.01,2013-05-24 04:01:00,
2013-05-23 23:06:00,64.8,37.9,29.35,ENE,68,0.0,0.0,37,0.00,,---,0.00,VWS V14.01,2013-05-24 04:06:00,
2013-05-23 23:11:00,64.8,37.9,29.35,ENE,68,0.0,0.0,37,0.00,,---,0.00,VWS V14.01,2013-05-24 04:11:00,
2013-05-23 23:16:00,64.6,37.8,29.35,ENE,68,0.0,0.0,37,0.00,,---,0.00,VWS V14.01,2013-05-24 04:16:00,
2013-05-23 23:21:00,64.4,37.6,29.38,ENE,68,0.0,0.0,37,0.00,,---,0.00,VWS V14.01,2013-05-24 04:21:00,
2013-05-23 23:26:00,64.4,37.6,29.38,ENE,68,0.0,0.0,37,0.00,,---,0.00,VWS V14.01,2013-05-24 04:26:00,
2013-05-23 23:31:00,64.2,38.1,29.38,ENE,68,0.0,0.0,38,0.00,,---,0.00,VWS V14.01,2013-05-24 04:31:00,
2013-05-23 23:36:00,64.2,38.1,29.38,ENE,68,0.0,0.0,38,0.00,,---,0.00,VWS V14.01,2013-05-24 04:36:00,
2013-05-23 23:41:00,63.9,37.8,29.38,ENE,68,0.0,0.0,38,0.00,,---,0.00,VWS V14.01,2013-05-24 04:41:00,
2013-05-23 23:46:00,63.9,37.8,29.38,ENE,68,0.0,0.0,38,0.00,,---,0.00,VWS V14.01,2013-05-24 04:46:00,
2013-05-23 23:51:00,63.7,37.6,29.38,ENE,68,0.0,0.0,38,0.00,,---,0.00,VWS V14.01,2013-05-24 04:51:00,
2013-05-23 23:56:00,63.5,37.5,29.38,ENE,68,0.0,0.0,38,0.00,,---,0.00,VWS V14.01,2013-05-24 04:56:00,